Location: Unspecified
(41.1637°N, 24.2901°E)
Time: 14:05:18
(UTC+01:00)

ARIANE 6 FM1 Upper Stage - Pass Details

Date: 23 January 2026
Orbit: 522 x 609 km, 62.0° (Epoch: 11 February)

Event Time Altitude Azimuth Distance (km) Brightness Sun altitude
Rises 18:32:36 0° 238° (WSW) 2,711 7.2 -23.3°
Reaches altitude 10° 18:34:59 10° 247° (WSW) 1,806 6.2 -23.7°
Maximum altitude 18:38:41 34° 314° (NW) 899 4.0 -24.4°
Enters shadow 18:39:30 31° 340° (NNW) 961 3.9 -24.6°
